FW9848 Weather Reports


time (UTC)temp
C
wind
direction
speed
KPH
gust
KPH
rain 1hr
cm
rain 24hr
cm
rain mn
cm
humidity
%
barometer
mb
20260506200048 31 0 0.0 0.0 0.00 0.03 0.03 61 1011.5
20260506194549 30 0 0.0 0.0 0.00 0.03 0.03 65 1011.6
20260506193051 29 62 0.0 4.8 0.00 0.03 0.03 68 1011.7
20260506191555 30 0 0.0 0.0 0.00 0.03 0.03 68 1011.8
20260506190053 29 0 0.0 0.0 0.00 0.03 0.03 72 1011.9
20260506184609 28 0 0.0 0.0 0.00 0.03 0.03 71 1012.1
20260506183103 28 0 0.0 0.0 0.00 0.03 0.03 75 1012.3
20260506181612 27 0 0.0 6.4 0.00 0.03 0.03 76 1012.5
20260506180050 27 0 0.0 4.8 0.00 0.03 0.03 77 1012.7
20260506174548 26 0 0.0 4.8 0.00 0.03 0.03 78 1012.7
20260506173101 26 0 0.0 1.6 0.00 0.03 0.03 80 1012.7
20260506171549 26 0 0.0 0.0 0.00 0.03 0.03 81 1012.8
20260506170055 26 0 0.0 0.0 0.00 0.03 0.03 82 1012.9
20260506164549 25 0 0.0 1.6 0.03 0.03 0.03 82 1012.9
20260506163055 24 0 0.0 0.0 0.03 0.03 0.03 82 1012.8
20260506161550 23 0 0.0 0.0 0.03 0.03 0.03 77 1012.8
20260506160108 23 0 0.0 0.0 0.03 0.03 0.03 75 1012.6
20260506154601 23 0 0.0 4.8 0.00 0.00 0.00 81 1012.6
20260506153108 24 0 0.0 0.0 0.00 0.00 0.00 82 1012.3
20260506151551 25 0 0.0 0.0 0.00 0.00 0.00 82 1012.0
20260506150100 25 0 0.0 0.0 0.00 0.00 0.00 82 1011.8
20260506144556 24 0 0.0 0.0 0.00 0.00 0.00 82 1011.8
20260506143050 24 0 0.0 0.0 0.00 0.00 0.00 82 1011.6
20260506141553 24 0 0.0 0.0 0.00 0.00 0.00 82 1011.4
20260506140054 23 0 0.0 0.0 0.00 0.00 0.00 82 1011.1
20260506134554 23 0 0.0 1.6 0.00 0.00 0.00 81 1010.8
20260506133048 23 0 0.0 4.8 0.00 0.00 0.00 81 1010.5
20260506131554 23 0 0.0 6.4 0.00 0.00 0.00 81 1010.5
20260506130050 23 0 0.0 6.4 0.00 0.00 0.00 80 1010.2
20260506124550 23 72 0.0 3.2 0.00 0.00 0.00 78 1010.3
20260506123051 23 0 0.0 1.6 0.00 0.00 0.00 78 1010.3
20260506121555 23 0 0.0 0.0 0.00 0.00 0.00 78 1010.3
20260506120053 23 0 0.0 0.0 0.00 0.00 0.00 78 1010.3
20260506114553 23 0 0.0 0.0 0.00 0.00 0.00 78 1010.2
20260506113056 23 0 0.0 0.0 0.00 0.00 0.00 79 1010.1
20260506111547 23 0 0.0 0.0 0.00 0.00 0.00 79 1010.3
20260506110054 23 0 0.0 0.0 0.00 0.00 0.00 79 1010.2
20260506104555 23 0 0.0 0.0 0.00 0.00 0.00 80 1010.1
20260506103056 23 0 0.0 0.0 0.00 0.00 0.00 80 1009.9
20260506101552 23 0 0.0 0.0 0.00 0.00 0.00 80 1010.0
20260506100055 23 0 0.0 0.0 0.00 0.00 0.00 80 1009.9
20260506094552 23 0 0.0 0.0 0.00 0.00 0.00 79 1010.0
20260506093053 23 0 0.0 0.0 0.00 0.00 0.00 79 1009.9
20260506091558 23 0 0.0 0.0 0.00 0.00 0.00 79 1009.9
20260506090059 23 0 0.0 0.0 0.00 0.00 0.00 79 1010.1
20260506084552 23 0 0.0 0.0 0.00 0.00 0.00 81 1010.0
20260506083056 23 0 0.0 0.0 0.00 0.00 0.00 82 1010.2
20260506081557 23 0 0.0 0.0 0.00 0.00 0.00 82 1010.2
20260506080104 23 0 0.0 1.6 0.00 0.00 0.00 82 1010.2
20260506073054 23 0 0.0 0.0 0.00 0.00 0.00 82 1010.2
20260506071602 23 0 0.0 0.0 0.00 0.00 0.00 82 1010.3
20260506061549 24 57 0.0 8.0 0.00 0.00 0.00 82 1010.4
20260506044553 25 59 1.6 9.7 0.00 0.00 0.00 82 1010.2
20260506043048 25 0 0.0 4.8 0.00 0.00 0.00 82 1010.2
20260506041550 25 55 1.6 6.4 0.00 0.00 0.00 82 1010.0
20260506040051 25 0 1.6 9.7 0.00 0.00 0.00 82 1009.9
20260506034603 25 61 1.6 11.3 0.00 0.00 0.00 81 1009.8
20260506033051 26 0 1.6 9.7 0.00 0.00 0.00 81 1009.6
20260506031552 26 0 0.0 11.3 0.00 0.00 0.00 80 1009.5
20260506030048 26 0 0.0 6.4 0.00 0.00 0.00 79 1009.3
20260506024607 26 0 0.0 6.4 0.00 0.00 0.00 78 1009.1
20260506023051 27 0 0.0 9.7 0.00 0.00 0.00 77 1008.8
20260506021552 27 0 0.0 6.4 0.00 0.00 0.00 74 1008.7
20260506020049 28 0 0.0 8.0 0.00 0.00 0.00 72 1008.6
20260506014551 28 0 0.0 4.8 0.00 0.00 0.00 71 1008.1
20260506013107 28 0 0.0 0.0 0.00 0.00 0.00 71 1007.8
20260506011604 28 0 0.0 0.0 0.00 0.00 0.00 70 1007.6
20260506010056 28 0 0.0 0.0 0.00 0.00 0.00 69 1007.4
20260506004556 29 0 0.0 0.0 0.00 0.00 0.00 68 1007.3
20260506003049 30 0 0.0 0.0 0.00 0.00 0.00 67 1007.3
20260506001556 30 0 0.0 0.0 0.00 0.00 0.00 65 1007.3
20260506000101 30 0 0.0 0.0 0.00 0.00 0.00 65 1007.2
20260505234559 31 0 0.0 0.0 0.00 0.00 0.00 62 1007.2
20260505233054 31 0 0.0 0.0 0.00 0.00 0.00 62 1007.2
20260505231554 30 0 0.0 0.0 0.00 0.00 0.00 62 1007.2
20260505230105 31 0 0.0 0.0 0.00 0.00 0.00 60 1007.1
20260505224602 31 0 0.0 0.0 0.00 0.00 0.00 63 1007.2
20260505223107 31 0 0.0 0.0 0.00 0.00 0.00 62 1007.2
20260505221555 31 0 0.0 0.0 0.00 0.00 0.00 63 1007.2
20260505220053 31 0 3.2 9.7 0.00 0.00 0.00 60 1007.5
20260505214550 31 0 0.0 12.9 0.00 0.00 0.00 61 1007.6
20260505213056 31 0 0.0 4.8 0.00 0.00 0.00 63 1007.9
20260505211553 31 0 0.0 0.0 0.00 0.00 0.00 64 1008.0
20260505210050 30 0 0.0 4.8 0.00 0.00 0.00 64 1008.3
20260505204556 30 176 1.6 11.3 0.00 0.00 0.00 63 1008.6
20260505203102 30 0 0.0 12.9 0.00 0.00 0.00 64 1008.8
20260505201550 31 0 0.0 0.0 0.00 0.00 0.00 65 1009.2